This is the latest recevied weather packets stored in our database for station/object EA7AIS-10. If no packets are shown the sender has not sent any weather packets the latest 10 day(s).
| Time | Temp. | Humidity | Pressure | Rain* | Wind** | Luminosity | Snow |
|---|---|---|---|---|---|---|---|
| 1777414547 | 17.22° C | 88% | 1008.7 hPa | - | - | - | - |
| 1777413648 | 17.22° C | 89% | 1008.7 hPa | - | - | - | - |
| 1777412747 | 17.78° C | 87% | 1008.8 hPa | - | - | - | - |
| 1777411847 | 17.78° C | 86% | 1008.9 hPa | - | - | - | - |
| 1777410947 | 17.78° C | 88% | 1009 hPa | - | - | - | - |
| 1777410047 | 17.78° C | 87% | 1009.1 hPa | - | - | - | - |
| 1777409147 | 17.78° C | 87% | 1008.9 hPa | - | - | - | - |
| 1777408247 | 17.78° C | 87% | 1008.5 hPa | - | - | - | - |
| 1777407347 | 17.78° C | 86% | 1008.4 hPa | - | - | - | - |
| 1777406447 | 17.78° C | 87% | 1008.3 hPa | - | - | - | - |
| 1777405547 | 17.78° C | 87% | 1008.2 hPa | - | - | - | - |
| 1777404646 | 17.78° C | 86% | 1008 hPa | - | - | - | - |
| 1777403746 | 18.33° C | 85% | 1007.9 hPa | - | - | - | - |
| 1777402847 | 18.33° C | 84% | 1007.8 hPa | - | - | - | - |
| 1777401946 | 18.89° C | 82% | 1007.8 hPa | - | - | - | - |
| 1777401046 | 19.44° C | 80% | 1007.8 hPa | - | - | - | - |
| 1777400146 | 20° C | 78% | 1007.9 hPa | - | - | - | - |
| 1777399246 | 20° C | 77% | 1007.8 hPa | - | - | - | - |
| 1777398346 | 20° C | 77% | 1007.8 hPa | - | - | - | - |
| 1777397446 | 20.56° C | 77% | 1007.8 hPa | - | - | - | - |
| 1777396546 | 20.56° C | 74% | 1007.8 hPa | - | - | - | - |
| 1777395646 | 21.11° C | 73% | 1007.9 hPa | - | - | - | - |
| 1777394746 | 21.11° C | 73% | 1008 hPa | - | - | - | - |
| 1777393846 | 21.11° C | 73% | 1008.2 hPa | - | - | - | - |
| 1777392946 | 21.11° C | 73% | 1008 hPa | - | - | - | - |
* Rain since midnight (hover to see other rain measurements)
** Current wind speed in m/s (hover to see current wind gust speed)